Simultaneous Nadir Overpasses (SNOs) Predictions

Prediction of SNOs between NOAA-19 and TERRA Satellite Orbit:

Table of predicted SNOs for the next 14.0 days since TLE Epoch: 9/9/2023
Index Date (NOAA-19) Time (NOAA-19) Lat,Lon (NOAA-19) SZA (NOAA-19 ) Date (TERRA) Time (TERRA) Lat,Lon (TERRA) SZA (TERRA ) Distance(km) Time Diff (sec)
1 09/09/2023 06:20:02 80.81, 116.22 76.79 09/09/2023 06:21:09 80.81, 116.10 76.80 2.05 67
2 09/09/2023 07:11:05 -80.83, -75.86 103.13 09/09/2023 07:10:30 -80.83, -75.99 103.15 2.27 35
3 09/11/2023 10:10:32 -80.81,-121.45 102.39 09/11/2023 10:11:20 -80.80,-121.55 102.39 1.84 48
4 09/11/2023 11:01:25 80.82, 46.16 77.66 09/11/2023 11:00:42 80.81, 46.22 77.65 1.26 43
5 09/13/2023 14:00:51 80.80, 0.87 78.44 09/13/2023 14:01:31 80.80, 0.86 78.45 0.21 40
6 09/13/2023 14:51:54 -80.82, 168.81 101.47 09/13/2023 14:50:52 -80.83, 168.83 101.49 0.74 62
7 09/15/2023 17:51:20 -80.81, 123.47 100.70 09/15/2023 17:51:41 -80.81, 123.40 100.70 1.33 21
8 09/15/2023 18:42:13 80.82, -68.90 79.36 09/15/2023 18:41:03 80.82, -68.90 79.33 0.25 70
9 09/17/2023 21:41:39 80.80,-114.25 80.13 09/17/2023 21:41:51 80.81,-114.13 80.16 2.70 12
10 09/20/2023 01:32:08 -80.80, 8.17 99.02 09/20/2023 01:32:01 -80.81, 8.28 99.00 2.36 7



Historial Predications of SNOs between NOAA-19 and TERRA
